When you browse on this site, cookies collect data to enhance your experience and personalize the content and advertising you see.
Visit our Privacy Policy to learn more. By continuing to use the site, you agree to this use of cookies and data.
  • In Austria
  • List of Countries
  • For 7 days
  • Water Temperature
  • Weather Map
  • News
  • Weather Widgets
  • user-avatar
    Login

    Hourly Weather Tetepango

    Today, 18 August, Sunday

    Time Temperature Precipitation Wind Pressure Humidity
    00:00 +13°C° 0 mm 0 mps 588 mmHg 92%
    01:00 +13°C° 0 mm 0 mps 588 mmHg 93%
    02:00 +13°C° 0 mm 0 mps 587 mmHg 93%
    03:00 +12°C° 0 mm 0 mps 587 mmHg 93%
    04:00 +12°C° 0 mm 0 mps 587 mmHg 93%
    05:00 +12°C° 0 mm 0 mps 587 mmHg 92%
    06:00 +14°C° 0 mm 0 mps 588 mmHg 86%
    07:00 +16°C° 0 mm 0 mps 589 mmHg 79%
    08:00 +18°C° 0 mm 0 mps 590 mmHg 72%
    09:00 +21°C° 0 mm 1 mps 591 mmHg 63%
    10:00 +23°C° 0 mm 2 mps 591 mmHg 54%
    11:00 +25°C° 0 mm 2 mps 592 mmHg 46%
    12:00 +25°C° 0 mm 3 mps 591 mmHg 45%
    13:00 +26°C° 0 mm 4 mps 591 mmHg 44%
    14:00 +26°C° 0 mm 5 mps 591 mmHg 43%
    15:00 +25°C° 0 mm 5 mps 590 mmHg 50%
    16:00 +23°C° 0 mm 5 mps 589 mmHg 58%
    17:00 +22°C° 0 mm 5 mps 589 mmHg 65%
    18:00 +20°C° 0.5 mm 4 mps 589 mmHg 74%
    19:00 +18°C° 0.5 mm 3 mps 589 mmHg 83%
    20:00 +16°C° 0.5 mm 2 mps 589 mmHg 92%
    21:00 +16°C° 0 mm 1 mps 589 mmHg 93%
    22:00 +15°C° 0 mm 1 mps 588 mmHg 95%
    23:00 +15°C° 0 mm 1 mps 588 mmHg 96%

    Tomorrow, 19 August, Monday

    Time Temperature Precipitation Wind Pressure Humidity
    00:00 +14°C° 0 mm 1 mps 588 mmHg 96%
    01:00 +14°C° 0 mm 1 mps 588 mmHg 97%
    02:00 +14°C° 0 mm 1 mps 587 mmHg 97%
    03:00 +14°C° 0 mm 1 mps 588 mmHg 96%
    04:00 +14°C° 0 mm 1 mps 588 mmHg 96%
    05:00 +15°C° 0 mm 1 mps 588 mmHg 95%
    06:00 +15°C° 0 mm 1 mps 589 mmHg 90%
    07:00 +16°C° 0 mm 1 mps 589 mmHg 84%
    08:00 +17°C° 0 mm 2 mps 590 mmHg 79%
    09:00 +19°C° 0 mm 2 mps 590 mmHg 72%
    10:00 +20°C° 0 mm 3 mps 591 mmHg 64%
    11:00 +22°C° 0 mm 3 mps 591 mmHg 57%
    12:00 +22°C° 0.1 mm 5 mps 591 mmHg 57%
    13:00 +22°C° 0.1 mm 6 mps 590 mmHg 58%
    14:00 +23°C° 0.1 mm 7 mps 590 mmHg 58%
    15:00 +21°C° 0.1 mm 7 mps 590 mmHg 62%
    16:00 +20°C° 0.1 mm 7 mps 589 mmHg 66%
    17:00 +18°C° 0.1 mm 7 mps 589 mmHg 70%
    18:00 +17°C° 0 mm 5 mps 589 mmHg 77%
    19:00 +15°C° 0 mm 4 mps 589 mmHg 83%
    20:00 +15°C° 0 mm 2 mps 589 mmHg 90%
    21:00 +14°C° 0 mm 2 mps 589 mmHg 92%
    22:00 +14°C° 0 mm 1 mps 589 mmHg 93%
    23:00 +13°C° 0 mm 1 mps 589 mmHg 95%

    Day after tomorrow, 20 August, Tuesday

    Time Temperature Precipitation Wind Pressure Humidity
    00:00 +13°C° 0 mm 1 mps 588 mmHg 95%
    01:00 +12°C° 0 mm 1 mps 588 mmHg 94%
    02:00 +12°C° 0 mm 1 mps 587 mmHg 94%
    03:00 +12°C° 0 mm 1 mps 588 mmHg 94%
    04:00 +12°C° 0 mm 1 mps 588 mmHg 94%
    05:00 +11°C° 0 mm 1 mps 588 mmHg 93%
    06:00 +13°C° 0 mm 1 mps 588 mmHg 87%
    07:00 +14°C° 0 mm 1 mps 589 mmHg 80%
    08:00 +15°C° 0 mm 1 mps 590 mmHg 73%
    09:00 +17°C° 0 mm 2 mps 591 mmHg 66%
    10:00 +19°C° 0 mm 3 mps 591 mmHg 59%
    11:00 +21°C° 0 mm 4 mps 592 mmHg 52%
    12:00 +22°C° 0 mm 5 mps 591 mmHg 54%
    13:00 +22°C° 0 mm 6 mps 591 mmHg 56%
    14:00 +22°C° 0 mm 6 mps 591 mmHg 57%
    15:00 +21°C° 0.2 mm 6 mps 590 mmHg 62%
    16:00 +20°C° 0.2 mm 6 mps 590 mmHg 67%
    17:00 +19°C° 0.2 mm 6 mps 589 mmHg 72%
    18:00 +16°C° 0 mm 5 mps 589 mmHg 79%
    19:00 +14°C° 0 mm 3 mps 589 mmHg 86%
    20:00 +14°C° 0 mm 2 mps 589 mmHg 93%
    21:00 +14°C° 0 mm 2 mps 589 mmHg 93%
    22:00 +14°C° 0 mm 1 mps 590 mmHg 93%
    23:00 +14°C° 0 mm 1 mps 590 mmHg 94%

    21 August, Wednesday

    Time Temperature Precipitation Wind Pressure Humidity
    00:00 +14°C° 0 mm 1 mps 589 mmHg 94%
    01:00 +14°C° 0 mm 1 mps 589 mmHg 95%
    02:00 +13°C° 0 mm 1 mps 589 mmHg 95%
    03:00 +13°C° 0 mm 1 mps 589 mmHg 95%
    04:00 +13°C° 0 mm 1 mps 588 mmHg 95%
    05:00 +13°C° 0 mm 1 mps 588 mmHg 94%
    06:00 +14°C° 0 mm 1 mps 589 mmHg 89%
    07:00 +15°C° 0 mm 1 mps 590 mmHg 83%
    08:00 +16°C° 0 mm 1 mps 590 mmHg 77%
    09:00 +17°C° 0 mm 2 mps 591 mmHg 70%
    10:00 +19°C° 0 mm 3 mps 591 mmHg 63%
    11:00 +20°C° 0 mm 3 mps 591 mmHg 57%
    12:00 +21°C° 0 mm 4 mps 591 mmHg 57%
    13:00 +21°C° 0 mm 5 mps 591 mmHg 57%
    14:00 +22°C° 0 mm 5 mps 590 mmHg 57%
    15:00 +21°C° 0.5 mm 5 mps 590 mmHg 63%
    16:00 +20°C° 0.5 mm 5 mps 589 mmHg 69%
    17:00 +17°C° 0.5 mm 5 mps 589 mmHg 75%
    18:00 +17°C° 0.1 mm 4 mps 589 mmHg 80%
    19:00 +14°C° 0.1 mm 3 mps 589 mmHg 85%
    20:00 +14°C° 0.1 mm 1 mps 589 mmHg 91%
    21:00 +14°C° 0 mm 1 mps 589 mmHg 91%
    22:00 +14°C° 0 mm 1 mps 589 mmHg 91%
    23:00 +13°C° 0 mm 0 mps 589 mmHg 92%

    22 August, Thursday

    Time Temperature Precipitation Wind Pressure Humidity
    00:00 +13°C° 0.1 mm 0 mps 589 mmHg 92%
    01:00 +13°C° 0.1 mm 0 mps 589 mmHg 92%
    02:00 +13°C° 0.1 mm 0 mps 588 mmHg 92%
    03:00 +12°C° 0 mm 0 mps 588 mmHg 93%
    04:00 +12°C° 0 mm 0 mps 588 mmHg 94%
    05:00 +11°C° 0 mm 0 mps 588 mmHg 95%
    06:00 +13°C° 0 mm 0 mps 589 mmHg 89%
    07:00 +14°C° 0 mm 0 mps 590 mmHg 83%
    08:00 +18°C° 0 mm 1 mps 591 mmHg 77%
    09:00 +20°C° 0.1 mm 1 mps 591 mmHg 71%
    10:00 +21°C° 0.1 mm 1 mps 592 mmHg 65%
    11:00 +23°C° 0.1 mm 1 mps 592 mmHg 58%
    12:00 +23°C° 1 mm 1 mps 592 mmHg 57%
    13:00 +24°C° 1 mm 1 mps 591 mmHg 56%
    14:00 +24°C° 1 mm 1 mps 591 mmHg 54%
    15:00 +22°C° 2.4 mm 1 mps 590 mmHg 65%
    16:00 +20°C° 2.4 mm 2 mps 589 mmHg 76%
    17:00 +18°C° 2.4 mm 2 mps 589 mmHg 87%
    18:00 +18°C° 4.7 mm 1 mps 589 mmHg 89%
    19:00 +16°C° 4.7 mm 1 mps 589 mmHg 91%
    20:00 +15°C° 4.7 mm 1 mps 589 mmHg 93%
    21:00 +15°C° 1.8 mm 1 mps 589 mmHg 93%
    22:00 +14°C° 1.8 mm 0 mps 589 mmHg 94%
    23:00 +14°C° 1.8 mm 0 mps 590 mmHg 94%

    23 August, Friday

    Time Temperature Precipitation Wind Pressure Humidity
    00:00 +14°C° 0.5 mm 0 mps 589 mmHg 94%
    01:00 +15°C° 0.5 mm 1 mps 589 mmHg 93%
    02:00 +15°C° 0.5 mm 1 mps 589 mmHg 93%
    03:00 +15°C° 0.1 mm 1 mps 589 mmHg 92%
    04:00 +15°C° 0.1 mm 1 mps 589 mmHg 92%
    05:00 +15°C° 0.1 mm 1 mps 590 mmHg 91%
    06:00 +16°C° 0 mm 1 mps 590 mmHg 87%
    07:00 +16°C° 0 mm 1 mps 590 mmHg 83%
    08:00 +18°C° 0 mm 1 mps 591 mmHg 80%
    09:00 +20°C° 0.2 mm 1 mps 591 mmHg 72%
    10:00 +22°C° 0.2 mm 1 mps 592 mmHg 65%
    11:00 +23°C° 0.2 mm 1 mps 592 mmHg 58%
    12:00 +24°C° 1.3 mm 2 mps 592 mmHg 58%
    13:00 +24°C° 1.3 mm 2 mps 591 mmHg 58%
    14:00 +24°C° 1.3 mm 2 mps 591 mmHg 58%
    15:00 +21°C° 2.1 mm 2 mps 590 mmHg 67%
    16:00 +20°C° 2.1 mm 2 mps 589 mmHg 76%
    17:00 +18°C° 2.1 mm 2 mps 589 mmHg 85%
    18:00 +17°C° 3.7 mm 2 mps 589 mmHg 87%
    19:00 +16°C° 3.7 mm 2 mps 589 mmHg 90%
    20:00 +16°C° 3.7 mm 2 mps 589 mmHg 93%
    21:00 +16°C° 0.7 mm 1 mps 590 mmHg 92%
    22:00 +15°C° 0.7 mm 1 mps 590 mmHg 91%
    23:00 +14°C° 0.7 mm 0 mps 590 mmHg 90%
    Show more